This demonstration page uses our WeatherBlox Daily Observations layout. Learn more.

Left ArrowRight Arrow

34.74481, -87.66753

Hourly Observations for May 22, 2020

Temp ( °F °C ) Dew Point ( °F °C ) Humidity (%) Winds ( mph kmh ) Pressure ( in mb ) Visibility ( mi km ) Precip ( " mm )
12:53 am 00:53 Cloudy 67 19.4 63 17.2 87 87 Calm 29.97 1015 10 16 0.00 0.00
1:53 am 01:53 Cloudy 68 20 63 17.2 84 84 ENE 3 6 29.96 1015 10 16 0.00 0.00
2:53 am 02:53 Cloudy 69 20.6 62 16.7 78 78 SE 7 11 29.95 1014 10 16 0.00 0.00
3:53 am 03:53 Cloudy 68 20 63 17.2 84 84 ENE 5 7 29.94 1014 10 16 0.00 0.00
4:53 am 04:53 Mostly Cloudy 67 19.4 63 17.2 87 87 E 3 6 29.95 1014 10 16 0.00 0.00
5:53 am 05:53 Mostly Cloudy 69 20.6 63 17.2 81 81 SSE 5 7 29.96 1015 10 16 0.00 0.00
6:02 am 06:02 Mostly Cloudy with Nearby Thunderstorms 69 20.6 63 17.2 81 81 SSW 7 11 30.02 1016 10 16 0.00 0.00
6:15 am 06:15 Cloudy with Strong Thunderstorms 66 18.9 61 16.1 84 84 SW 13 20 30.02 1017 6 10 0.14 3.56
6:23 am 06:23 Cloudy with Strong Thunderstorms 66 18.9 62 16.7 87 87 SW 10 17 30.01 1016 6 10 0.23 5.84
6:53 am 06:53 Cloudy with Thunderstorms 66 18.9 62 16.7 87 87 undefined N/A 29.98 1015 10 16 0.31 7.87
7:20 am 07:20 Cloudy with Nearby Thunderstorms 66 18.9 62 16.7 87 87 WSW 12 19 30.04 1017 9 14 0.11 2.79
7:53 am 07:53 Cloudy with Light Rain 66 18.9 62 16.7 87 87 W 9 15 30.03 1017 10 16 0.18 4.57
8:53 am 08:53 Cloudy with Light Rain 66 18.9 62 16.7 87 87 SSW 10 17 30.02 1017 10 16 0.05 1.27
9:53 am 09:53 Cloudy 67 19.4 63 17.2 87 87 S 6 9 30.02 1017 10 16 0.02 0.51
10:53 am 10:53 Cloudy 69 20.6 63 17.2 81 81 S 6 9 30.04 1017 10 16 0.00 0.00
11:53 am 11:53 Cloudy 71 21.7 64 17.8 79 79 Calm 30.04 1017 10 16 0.00 0.00
12:07 pm 12:07 Cloudy 71 21.7 64 17.8 79 79 Calm 30.03 1017 10 16 0.00 0.00
12:50 pm 12:50 Cloudy 73 23 66 19 78 78 SE 3 6 30.01 1016 10 16 0.00 0.00
12:53 pm 12:53 Cloudy 74 23.3 66 18.9 76 76 Calm 30.01 1016 10 16 0.00 0.00
1:53 pm 13:53 Mostly Sunny 79 26.1 69 20.6 72 72 Calm 30.00 1016 10 16 0.00 0.00
2:53 pm 14:53 Sunny 81 27.2 68 20 65 65 Calm 29.98 1015 10 16 0.00 0.00
3:53 pm 15:53 Sunny 83 28.3 69 20.6 63 63 ESE 5 7 29.96 1014 10 16 0.00 0.00
4:53 pm 16:53 Sunny 85 29.4 69 20.6 59 59 S 6 9 29.93 1014 10 16 0.00 0.00
5:53 pm 17:53 Sunny 84 28.9 70 21.1 63 63 SE 3 6 29.92 1013 10 16 0.00 0.00
6:53 pm 18:53 Sunny 82 27.8 71 21.7 69 69 E 5 7 29.95 1014 10 16 0.00 0.00
7:53 pm 19:53 Clear 78 25.6 72 22.2 82 82 E 3 6 29.96 1015 10 16 0.00 0.00
8:49 pm 20:49 Mostly Cloudy 73 23 63 17 69 69 NE 12 19 29.97 1015 10 16 0.00 0.00
8:53 pm 20:53 Mostly Cloudy 74 23.3 63 17.2 69 69 VRB 6 9 29.98 1015 10 16 0.00 0.00
9:16 pm 21:16 Mostly Clear 73 22.8 64 17.8 74 74 Calm 29.98 1015 10 16 0.00 0.00
9:53 pm 21:53 Clear 72 22.2 65 18.3 79 79 Calm 29.98 1015 10 16 0.00 0.00
10:53 pm 22:53 Clear 71 21.7 65 18.3 81 81 E 6 9 29.98 1015 10 16 0.00 0.00
11:53 pm 23:53 Clear 70 21.1 66 18.9 87 87 E 5 7 29.98 1015 10 16 0.00 0.00

Powered by AerisWeather